FW0065 Weather Reports


Display with metric or nautical units.
time (UTC)temp
F
wind
direction
speed
MPH
gust
MPH
rain 1hr
in
rain 24hr
in
rain mn
in
humidity
%
barometer
mb
20260505014026 74 292 1.0 6.0 0.00 0.00 0.00 61 1019.1
20260505013005 74 329 1.0 4.0 0.00 0.00 0.00 63 1019.3
20260505012026 72 346 1.0 4.0 0.00 0.00 0.00 66 1019.5
20260505011005 72 347 1.0 3.0 0.00 0.00 0.00 68 1019.8
20260505010026 71 332 1.0 4.0 0.00 0.00 0.00 69 1019.9
20260505005005 71 7 0.0 3.0 0.00 0.00 0.00 70 1020.0
20260505004005 70 4 0.0 2.0 0.00 0.00 0.00 71 1019.9
20260505003005 70 346 0.0 3.0 0.00 0.00 0.00 70 1020.1
20260505002006 71 3 0.0 2.0 0.00 0.00 0.00 70 1019.9
20260505001006 71 8 0.0 2.0 0.00 0.00 0.00 70 1020.1
20260505000005 70 4 0.0 2.0 0.00 0.00 0.00 70 1020.3
20260504235026 70 24 0.0 1.0 0.00 0.00 0.00 71 1020.2
20260504234005 69 18 0.0 2.0 0.00 0.00 0.00 71 1020.4
20260504233005 69 339 0.0 1.0 0.00 0.00 0.00 72 1020.4
20260504232005 69 343 0.0 2.0 0.00 0.00 0.00 73 1020.4
20260504231005 70 5 0.0 3.0 0.00 0.00 0.00 70 1020.6
20260504230006 69 4 0.0 1.0 0.00 0.00 0.00 70 1020.7
20260504225004 68 224 0.0 1.0 0.00 0.00 0.00 66 1020.6
20260504224025 66 184 0.0 1.0 0.00 0.00 0.00 69 1020.6
20260504223027 65 0 0.0 0.0 0.00 0.00 0.00 70 1020.6
20260504222025 64 188 0.0 1.0 0.00 0.00 0.00 71 1020.7
20260504221004 63 0 0.0 0.0 0.00 0.00 0.00 73 1020.8
20260504220026 62 188 0.0 2.0 0.00 0.00 0.00 73 1020.8
20260504215004 62 167 0.0 2.0 0.00 0.00 0.00 73 1020.6
20260504214004 61 147 0.0 1.0 0.00 0.00 0.00 73 1020.4
20260504213028 60 0 0.0 0.0 0.00 0.00 0.00 74 1020.4
20260504212006 60 0 0.0 0.0 0.00 0.00 0.00 75 1020.5
20260504211004 60 0 0.0 0.0 0.00 0.00 0.00 75 1020.4
20260504210006 59 0 0.0 0.0 0.00 0.00 0.00 75 1020.4
20260504205004 59 162 0.0 1.0 0.00 0.00 0.00 76 1020.1
20260504204006 59 197 0.0 1.0 0.00 0.00 0.00 76 1020.1
20260504203004 59 202 0.0 1.0 0.00 0.00 0.00 77 1020.1
20260504202004 59 202 0.0 1.0 0.00 0.00 0.00 77 1020.0
20260504201005 59 196 0.0 1.0 0.00 0.00 0.00 77 1019.9
20260504200005 58 195 0.0 1.0 0.00 0.00 0.00 77 1019.7
20260504195004 58 198 0.0 1.0 0.00 0.00 0.00 77 1019.7
20260504194004 58 0 0.0 0.0 0.00 0.00 0.00 76 1019.7
20260504193006 58 0 0.0 0.0 0.00 0.00 0.00 77 1019.7
20260504192026 58 0 0.0 0.0 0.00 0.00 0.00 77 1019.5
20260504191005 57 206 0.0 1.0 0.00 0.00 0.00 78 1019.5
20260504190004 57 213 0.0 1.0 0.00 0.00 0.00 78 1019.4
20260504185006 57 0 0.0 0.0 0.00 0.00 0.00 78 1019.3
20260504184004 56 0 0.0 0.0 0.00 0.00 0.00 78 1019.2
20260504183004 56 213 0.0 1.0 0.00 0.00 0.00 78 1019.1
20260504182004 56 0 0.0 0.0 0.00 0.00 0.00 77 1019.2
20260504181004 57 0 0.0 0.0 0.00 0.00 0.00 76 1019.0
20260504180004 56 0 0.0 0.0 0.00 0.00 0.00 77 1019.0
20260504175004 56 214 0.0 1.0 0.00 0.00 0.00 77 1019.1
20260504174025 55 223 1.0 3.0 0.00 0.00 0.00 78 1019.2
20260504173004 54 0 0.0 0.0 0.00 0.00 0.00 78 1018.9
20260504172004 54 232 0.0 1.0 0.00 0.00 0.00 78 1018.8
20260504171004 54 196 0.0 2.0 0.00 0.00 0.00 78 1018.8
20260504151027 57 0 0.0 0.0 0.00 0.00 0.00 72 1018.6
20260504141004 59 0 0.0 0.0 0.00 0.00 0.00 66 1019.3
20260504082004 72 0 0.0 0.0 0.00 0.00 0.00 51 1018.6
20260504081004 72 338 0.0 1.0 0.00 0.00 0.00 51 1018.6
20260504050004 80 9 1.0 12.0 0.00 0.00 0.00 36 1017.5
20260504045004 80 310 1.0 3.0 0.00 0.00 0.00 36 1017.6
20260504044004 80 339 1.0 3.0 0.00 0.00 0.00 36 1017.7
20260504043025 80 31 0.0 1.0 0.00 0.00 0.00 36 1017.7
20260504042025 80 335 0.0 3.0 0.00 0.00 0.00 36 1017.9
20260504041024 80 321 1.0 3.0 0.00 0.00 0.00 35 1017.9
20260504040005 80 11 0.0 9.0 0.00 0.00 0.00 35 1017.9
20260504035003 79 292 1.0 7.0 0.00 0.00 0.00 36 1018.0
20260504034004 80 310 1.0 5.0 0.00 0.00 0.00 35 1018.1
20260504033026 79 279 1.0 4.0 0.00 0.00 0.00 36 1018.1
20260504032026 79 320 1.0 7.0 0.00 0.00 0.00 35 1018.2
20260504031005 78 24 0.0 5.0 0.00 0.00 0.00 36 1018.4
20260504030005 79 6 1.0 4.0 0.00 0.00 0.00 36 1018.6
20260504025005 78 354 1.0 8.0 0.00 0.00 0.00 34 1018.9
20260504024005 79 310 1.0 5.0 0.00 0.00 0.00 34 1019.0
20260504023005 79 303 2.0 8.0 0.00 0.00 0.00 35 1019.2
20260504022026 78 323 2.0 9.0 0.00 0.00 0.00 39 1019.3
20260504021005 78 344 2.0 12.0 0.00 0.00 0.00 39 1019.5
20260504020005 78 327 2.0 9.0 0.00 0.00 0.00 41 1019.7
20260504015005 77 327 1.0 8.0 0.00 0.00 0.00 44 1019.8